ITY1462 LICT-LIMP

Flight info

Callsign ITY1462
Flight time 1h 13m
Altitude 36000
Route GIANO L12 LOMED L995 LUPOS
Aircraft A21N/M-SDE2E3FGHIRWXY/LB1

Departure

Time 2026-04-28 17:29
Airport Vincenzo Florio Airport Trapani-Birgi (LICT)

Arrival

Time 2026-04-28 18:42
Airport Parma Airport (LIMP)
Time Latitude Longitude Altitude Speed Heading
2026-04-28 17:12 37.90283 12.49602 36 ft 0 kts 260°
2026-04-28 17:24 37.90292 12.49593 36 ft 3 kts 352°
2026-04-28 17:24 37.90326 12.49596 36 ft 8 kts 339°
2026-04-28 17:24 37.90404 12.49549 36 ft 15 kts 351°
2026-04-28 17:24 37.90517 12.49528 39 ft 18 kts 334°
2026-04-28 17:25 37.90632 12.49458 41 ft 19 kts 336°
2026-04-28 17:25 37.90846 12.49254 37 ft 21 kts 309°
2026-04-28 17:25 37.90939 12.49112 33 ft 21 kts 309°
2026-04-28 17:26 37.91036 12.48963 33 ft 22 kts 309°
2026-04-28 17:26 37.91138 12.48807 33 ft 24 kts 309°
2026-04-28 17:26 37.91254 12.48623 34 ft 32 kts 308°
2026-04-28 17:26 37.91404 12.48376 30 ft 37 kts 307°
2026-04-28 17:27 37.91561 12.48103 23 ft 40 kts 305°
2026-04-28 17:27 37.91728 12.47809 22 ft 43 kts 307°
2026-04-28 17:27 37.91845 12.47622 25 ft 16 kts 292°
2026-04-28 17:27 37.91875 12.47637 25 ft 5 kts 151°
2026-04-28 17:28 37.91840 12.47666 24 ft 8 kts 123°
2026-04-28 17:28 37.91544 12.48140 25 ft 99 kts 128°
2026-04-28 17:28 37.90986 12.49046 40 ft 158 kts 128°
2026-04-28 17:29 37.90324 12.50154 648 ft 157 kts 129°
2026-04-28 17:29 37.89440 12.51017 1263 ft 163 kts 157°
2026-04-28 17:29 37.88317 12.51416 1869 ft 178 kts 168°
2026-04-28 17:30 37.86104 12.49514 2760 ft 240 kts 248°
2026-04-28 17:30 37.86932 12.45233 3925 ft 279 kts 315°
2026-04-28 17:30 37.88526 12.43764 4825 ft 282 kts 332°
2026-04-28 17:31 37.90360 12.43005 5657 ft 283 kts 354°
2026-04-28 17:31 37.94315 12.43018 7382 ft 287 kts 360°
2026-04-28 17:32 37.98325 12.43147 9165 ft 290 kts 358°
2026-04-28 17:32 38.00344 12.43194 10075 ft 291 kts 358°
2026-04-28 17:32 38.02422 12.43233 10553 ft 309 kts 358°
2026-04-28 17:32 38.04645 12.43272 10882 ft 330 kts 358°
2026-04-28 17:33 38.06986 12.43312 11416 ft 341 kts 358°
2026-04-28 17:33 38.09380 12.43356 12174 ft 345 kts 358°
2026-04-28 17:33 38.11792 12.43401 12963 ft 348 kts 358°
2026-04-28 17:33 38.12613 12.43417 13232 ft 350 kts 358°
2026-04-28 17:34 38.16685 12.43491 14442 ft 355 kts 358°
2026-04-28 17:34 38.19171 12.43536 15121 ft 359 kts 358°
2026-04-28 17:34 38.21679 12.43583 15793 ft 362 kts 358°
2026-04-28 17:34 38.24211 12.43629 16478 ft 365 kts 357°
2026-04-28 17:35 38.26768 12.43677 17151 ft 369 kts 357°
2026-04-28 17:35 38.29346 12.43722 17809 ft 372 kts 356°
2026-04-28 17:35 38.31947 12.43766 18441 ft 376 kts 356°
2026-04-28 17:35 38.34569 12.43811 18997 ft 379 kts 356°
2026-04-28 17:36 38.36320 12.43843 19366 ft 381 kts 356°
2026-04-28 17:36 38.38975 12.43896 19919 ft 383 kts 356°
2026-04-28 17:36 38.41655 12.43945 20473 ft 386 kts 356°
2026-04-28 17:36 38.44351 12.43993 21024 ft 389 kts 356°
2026-04-28 17:37 38.47063 12.44042 21591 ft 391 kts 357°
2026-04-28 17:37 38.49796 12.44091 22149 ft 394 kts 357°
2026-04-28 17:37 38.52542 12.44135 22692 ft 397 kts 356°
2026-04-28 17:37 38.55316 12.44183 23231 ft 399 kts 356°
2026-04-28 17:38 38.58104 12.44233 23736 ft 402 kts 356°
2026-04-28 17:38 38.60920 12.44284 24163 ft 405 kts 356°
2026-04-28 17:38 38.63750 12.44337 24587 ft 408 kts 356°
2026-04-28 17:38 38.66596 12.44392 25003 ft 411 kts 356°
2026-04-28 17:39 38.69464 12.44443 25431 ft 413 kts 357°
2026-04-28 17:39 38.72350 12.44495 25847 ft 415 kts 357°
2026-04-28 17:39 38.78164 12.44604 26649 ft 420 kts 357°
2026-04-28 17:40 38.81095 12.44660 27019 ft 423 kts 357°
2026-04-28 17:40 38.84044 12.44705 27391 ft 425 kts 356°
2026-04-28 17:40 38.86978 12.44371 27746 ft 422 kts 345°
2026-04-28 17:40 38.89771 12.43264 28076 ft 420 kts 334°
2026-04-28 17:41 38.92432 12.41794 28426 ft 422 kts 333°
2026-04-28 17:41 38.95155 12.40250 28751 ft 424 kts 334°
2026-04-28 17:41 38.97874 12.38728 29072 ft 427 kts 334°
2026-04-28 17:41 39.00574 12.37226 29385 ft 430 kts 334°
2026-04-28 17:42 39.03330 12.35706 29731 ft 432 kts 334°
2026-04-28 17:42 39.06104 12.34196 30064 ft 434 kts 334°
2026-04-28 17:42 39.08932 12.32655 30351 ft 436 kts 334°
2026-04-28 17:42 39.11729 12.31135 30624 ft 438 kts 334°
2026-04-28 17:43 39.14532 12.29579 30892 ft 439 kts 333°
2026-04-28 17:43 39.17304 12.28038 31170 ft 440 kts 334°
2026-04-28 17:43 39.20155 12.26469 31533 ft 439 kts 334°
2026-04-28 17:43 39.22931 12.24945 31882 ft 438 kts 333°
2026-04-28 17:44 39.25727 12.23391 32228 ft 437 kts 333°
2026-04-28 17:44 39.28517 12.21826 32562 ft 436 kts 333°
2026-04-28 17:44 39.31304 12.20279 32890 ft 436 kts 333°
2026-04-28 17:44 39.34085 12.18738 33196 ft 435 kts 333°
2026-04-28 17:45 39.36863 12.17195 33495 ft 434 kts 333°
2026-04-28 17:45 39.39639 12.15654 33816 ft 433 kts 333°
2026-04-28 17:45 39.42398 12.14119 34112 ft 431 kts 333°
2026-04-28 17:45 39.45151 12.12588 34351 ft 430 kts 333°
2026-04-28 17:46 39.47903 12.11052 34571 ft 430 kts 333°
2026-04-28 17:46 39.50647 12.09518 34777 ft 430 kts 333°
2026-04-28 17:46 39.53392 12.07985 34977 ft 429 kts 333°
2026-04-28 17:46 39.56129 12.06456 35170 ft 429 kts 333°
2026-04-28 17:47 39.58871 12.04920 35357 ft 429 kts 332°
2026-04-28 17:47 39.61608 12.03386 35521 ft 429 kts 332°
2026-04-28 17:47 39.64350 12.01851 35686 ft 429 kts 333°
2026-04-28 17:48 39.69833 11.98775 36000 ft 429 kts 333°
2026-04-28 17:48 39.72570 11.97237 36163 ft 429 kts 332°
2026-04-28 17:48 39.75306 11.95696 36327 ft 429 kts 332°
2026-04-28 17:48 39.78041 11.94157 36492 ft 428 kts 332°
2026-04-28 17:49 39.80773 11.92615 36650 ft 428 kts 332°
2026-04-28 17:49 39.83501 11.91073 36799 ft 428 kts 332°
2026-04-28 17:49 39.86234 11.89535 36953 ft 428 kts 333°
2026-04-28 17:49 39.89008 11.88099 37084 ft 429 kts 334°
2026-04-28 17:50 39.91787 11.86706 37092 ft 428 kts 335°
2026-04-28 17:50 39.97352 11.83927 37061 ft 428 kts 335°
2026-04-28 17:51 40.02911 11.81143 37054 ft 428 kts 335°
2026-04-28 17:51 40.08460 11.78359 37052 ft 428 kts 335°
2026-04-28 17:52 40.14024 11.75563 37055 ft 428 kts 335°
2026-04-28 17:52 40.22364 11.71359 37057 ft 428 kts 334°
2026-04-28 17:53 40.27934 11.68558 37051 ft 427 kts 334°
2026-04-28 17:53 40.33476 11.65759 37069 ft 430 kts 335°
2026-04-28 17:54 40.39041 11.62944 37059 ft 431 kts 335°
2026-04-28 17:54 40.44594 11.60079 37054 ft 430 kts 334°
2026-04-28 17:55 40.50143 11.57215 37053 ft 429 kts 334°
2026-04-28 17:55 40.55702 11.54359 37064 ft 428 kts 334°
2026-04-28 17:56 40.61273 11.51514 37056 ft 428 kts 335°
2026-04-28 17:56 40.66842 11.48689 37055 ft 427 kts 335°
2026-04-28 17:57 40.72430 11.45900 37056 ft 428 kts 335°
2026-04-28 17:57 40.77996 11.43057 37069 ft 428 kts 334°
2026-04-28 17:58 40.83546 11.40207 37053 ft 429 kts 335°
2026-04-28 17:58 40.89111 11.37336 37053 ft 428 kts 334°
2026-04-28 17:59 40.94680 11.34463 37052 ft 428 kts 334°
2026-04-28 17:59 41.00241 11.31584 37052 ft 428 kts 334°
2026-04-28 18:00 41.05817 11.28702 37063 ft 432 kts 335°
2026-04-28 18:00 41.11402 11.25795 37060 ft 432 kts 335°
2026-04-28 18:01 41.16990 11.22897 37041 ft 433 kts 335°
2026-04-28 18:01 41.22585 11.19992 37044 ft 431 kts 335°
2026-04-28 18:02 41.28180 11.17066 37062 ft 431 kts 335°
2026-04-28 18:02 41.33780 11.14139 37056 ft 431 kts 335°
2026-04-28 18:03 41.39379 11.11198 37045 ft 431 kts 335°
2026-04-28 18:03 41.44966 11.08254 37055 ft 431 kts 335°
2026-04-28 18:04 41.50565 11.05306 37061 ft 432 kts 335°
2026-04-28 18:04 41.56146 11.02342 37068 ft 432 kts 335°
2026-04-28 18:05 41.60792 10.99907 37057 ft 433 kts 335°
2026-04-28 18:05 41.67287 10.96455 37065 ft 433 kts 335°
2026-04-28 18:06 41.72899 10.93505 37058 ft 430 kts 335°
2026-04-28 18:06 41.78478 10.90581 37055 ft 430 kts 335°
2026-04-28 18:07 41.84057 10.87630 37053 ft 430 kts 335°
2026-04-28 18:07 41.89598 10.84687 37066 ft 430 kts 335°
2026-04-28 18:08 41.95146 10.81725 37054 ft 430 kts 335°
2026-04-28 18:08 42.00703 10.78754 37054 ft 430 kts 335°
2026-04-28 18:09 42.06265 10.75779 37053 ft 432 kts 335°
2026-04-28 18:09 42.11818 10.72799 37063 ft 430 kts 335°
2026-04-28 18:10 42.17353 10.69828 37054 ft 428 kts 335°
2026-04-28 18:10 42.22893 10.66848 37051 ft 428 kts 335°
2026-04-28 18:11 42.28432 10.63868 37052 ft 428 kts 335°
2026-04-28 18:11 42.34164 10.61666 37047 ft 437 kts 353°
2026-04-28 18:12 42.40263 10.61581 37056 ft 438 kts 356°
2026-04-28 18:12 42.46362 10.61542 37051 ft 437 kts 355°
2026-04-28 18:13 42.52420 10.61460 37052 ft 438 kts 355°
2026-04-28 18:13 42.58499 10.61365 37052 ft 437 kts 355°
2026-04-28 18:14 42.64572 10.61263 37051 ft 436 kts 355°
2026-04-28 18:14 42.70660 10.61165 37048 ft 436 kts 355°
2026-04-28 18:15 42.76736 10.61065 37047 ft 435 kts 355°
2026-04-28 18:15 42.82800 10.60964 37046 ft 435 kts 355°
2026-04-28 18:16 42.88859 10.60865 37047 ft 436 kts 355°
2026-04-28 18:16 42.94916 10.60767 37053 ft 435 kts 355°
2026-04-28 18:17 43.00967 10.60670 37041 ft 435 kts 355°
2026-04-28 18:17 43.03973 10.60622 36580 ft 431 kts 355°
2026-04-28 18:17 43.06998 10.60569 35550 ft 438 kts 355°
2026-04-28 18:18 43.10080 10.60517 34455 ft 447 kts 355°
2026-04-28 18:18 43.13217 10.60464 33431 ft 452 kts 356°
2026-04-28 18:18 43.16361 10.60415 32651 ft 451 kts 356°
2026-04-28 18:18 43.18428 10.60383 32261 ft 447 kts 356°
2026-04-28 18:19 43.21517 10.60333 31559 ft 443 kts 356°
2026-04-28 18:19 43.24590 10.60279 30921 ft 440 kts 356°
2026-04-28 18:19 43.27675 10.60225 30291 ft 437 kts 356°
2026-04-28 18:19 43.30710 10.60174 29612 ft 434 kts 356°
2026-04-28 18:20 43.33709 10.60123 28978 ft 430 kts 356°
2026-04-28 18:20 43.36690 10.60076 28336 ft 426 kts 356°
2026-04-28 18:20 43.39642 10.60029 27709 ft 422 kts 356°
2026-04-28 18:20 43.42574 10.59980 27074 ft 419 kts 356°
2026-04-28 18:21 43.45444 10.59930 26469 ft 416 kts 355°
2026-04-28 18:21 43.48325 10.59878 25923 ft 412 kts 356°
2026-04-28 18:21 43.51184 10.59832 25331 ft 409 kts 356°
2026-04-28 18:21 43.54026 10.59786 24743 ft 407 kts 355°
2026-04-28 18:22 43.56851 10.59739 24173 ft 405 kts 355°
2026-04-28 18:22 43.59661 10.59689 23635 ft 402 kts 355°
2026-04-28 18:22 43.62443 10.59643 23064 ft 398 kts 355°
2026-04-28 18:22 43.65206 10.59599 22452 ft 395 kts 355°
2026-04-28 18:23 43.67948 10.59555 21860 ft 393 kts 355°
2026-04-28 18:23 43.70667 10.59509 21316 ft 390 kts 355°
2026-04-28 18:23 43.73376 10.59461 20778 ft 388 kts 355°
2026-04-28 18:23 43.76073 10.59415 20238 ft 386 kts 355°
2026-04-28 18:24 43.78751 10.59367 19707 ft 384 kts 355°
2026-04-28 18:24 43.80560 10.59334 19371 ft 382 kts 355°
2026-04-28 18:24 43.84012 10.59281 19009 ft 368 kts 355°
2026-04-28 18:24 43.86549 10.59244 18711 ft 360 kts 355°
2026-04-28 18:25 43.89030 10.59205 18360 ft 354 kts 355°
2026-04-28 18:25 43.91477 10.59166 17957 ft 349 kts 355°
2026-04-28 18:25 43.93888 10.59123 17528 ft 345 kts 355°
2026-04-28 18:26 43.98645 10.59039 16698 ft 339 kts 356°
2026-04-28 18:26 44.00994 10.58998 16297 ft 337 kts 356°
2026-04-28 18:26 44.03332 10.58957 15880 ft 335 kts 356°
2026-04-28 18:26 44.05659 10.58917 15512 ft 334 kts 356°
2026-04-28 18:27 44.07979 10.58877 15184 ft 332 kts 356°
2026-04-28 18:27 44.10288 10.58839 14879 ft 331 kts 356°
2026-04-28 18:27 44.12589 10.58804 14617 ft 330 kts 357°
2026-04-28 18:27 44.14874 10.58769 14350 ft 328 kts 357°
2026-04-28 18:28 44.17153 10.58731 14084 ft 327 kts 357°
2026-04-28 18:28 44.19425 10.58686 13756 ft 326 kts 357°
2026-04-28 18:28 44.21681 10.58643 13377 ft 324 kts 358°
2026-04-28 18:28 44.23927 10.58598 12982 ft 322 kts 358°
2026-04-28 18:29 44.26167 10.58559 12553 ft 321 kts 358°
2026-04-28 18:29 44.28397 10.58523 12244 ft 319 kts 358°
2026-04-28 18:29 44.30610 10.58485 12035 ft 318 kts 358°
2026-04-28 18:29 44.32822 10.58446 11737 ft 318 kts 358°
2026-04-28 18:30 44.35030 10.58409 11389 ft 316 kts 358°
2026-04-28 18:30 44.36509 10.58384 11124 ft 315 kts 358°
2026-04-28 18:30 44.39402 10.58336 10699 ft 310 kts 358°
2026-04-28 18:30 44.41530 10.58299 10500 ft 301 kts 358°
2026-04-28 18:31 44.43611 10.58263 10332 ft 297 kts 359°
2026-04-28 18:31 44.45675 10.58225 10115 ft 297 kts 359°
2026-04-28 18:31 44.47740 10.58183 9871 ft 298 kts 358°
2026-04-28 18:31 44.49802 10.58137 9616 ft 296 kts 358°
2026-04-28 18:32 44.51851 10.58088 9339 ft 293 kts 359°
2026-04-28 18:32 44.53884 10.58030 9083 ft 291 kts 358°
2026-04-28 18:32 44.55896 10.57964 8830 ft 289 kts 358°
2026-04-28 18:32 44.57906 10.57896 8568 ft 288 kts 358°
2026-04-28 18:33 44.59904 10.57828 8301 ft 287 kts 358°
2026-04-28 18:33 44.61900 10.57758 8051 ft 286 kts 358°
2026-04-28 18:33 44.63884 10.57687 7804 ft 285 kts 358°
2026-04-28 18:33 44.65864 10.57615 7559 ft 284 kts 358°
2026-04-28 18:34 44.67839 10.57528 7301 ft 283 kts 354°
2026-04-28 18:34 44.69723 10.56803 7054 ft 282 kts 336°
2026-04-28 18:34 44.71598 10.56008 6815 ft 282 kts 350°
2026-04-28 18:34 44.73532 10.55642 6473 ft 281 kts 353°
2026-04-28 18:35 44.75478 10.55336 6027 ft 281 kts 353°
2026-04-28 18:35 44.77425 10.55029 5626 ft 281 kts 354°
2026-04-28 18:35 44.78769 10.54813 5370 ft 280 kts 354°
2026-04-28 18:35 44.80659 10.54499 5032 ft 278 kts 354°
2026-04-28 18:36 44.82576 10.54173 4663 ft 276 kts 354°
2026-04-28 18:36 44.84480 10.53846 4298 ft 274 kts 354°
2026-04-28 18:36 44.86362 10.53488 3941 ft 273 kts 348°
2026-04-28 18:36 44.88114 10.52515 3585 ft 271 kts 330°
2026-04-28 18:37 44.89609 10.50899 3216 ft 272 kts 318°
2026-04-28 18:37 44.90965 10.49050 2825 ft 271 kts 316°
2026-04-28 18:37 44.92301 10.47172 2451 ft 271 kts 315°
2026-04-28 18:37 44.93479 10.45115 2121 ft 268 kts 297°
2026-04-28 18:38 44.93991 10.42598 2036 ft 270 kts 272°
2026-04-28 18:38 44.94007 10.40019 1967 ft 255 kts 275°
2026-04-28 18:38 44.94213 10.37617 2025 ft 230 kts 274°
2026-04-28 18:38 44.93918 10.35629 2045 ft 196 kts 239°
2026-04-28 18:39 44.93036 10.34398 2063 ft 164 kts 207°
2026-04-28 18:39 44.92065 10.33849 1945 ft 145 kts 194°
2026-04-28 18:39 44.91107 10.33433 1722 ft 144 kts 195°
2026-04-28 18:39 44.90161 10.33017 1675 ft 144 kts 195°
2026-04-28 18:40 44.89185 10.32619 1569 ft 143 kts 194°
2026-04-28 18:40 44.88240 10.32244 1348 ft 143 kts 194°
2026-04-28 18:40 44.87271 10.31837 1115 ft 143 kts 198°
2026-04-28 18:40 44.86331 10.31358 853 ft 144 kts 200°
2026-04-28 18:41 44.85379 10.30920 597 ft 142 kts 197°
2026-04-28 18:41 44.84424 10.30497 405 ft 143 kts 198°
2026-04-28 18:41 44.83473 10.30066 212 ft 144 kts 198°
2026-04-28 18:41 44.82586 10.29679 169 ft 106 kts 196°
2026-04-28 18:42 44.82208 10.29516 172 ft 3 kts 196°
2026-04-28 18:42 44.82189 10.29538 172 ft 5 kts 120°
2026-04-28 18:42 44.82171 10.29590 171 ft 7 kts 110°
2026-04-28 18:42 44.82148 10.29651 170 ft 8 kts 141°
2026-04-28 18:43 44.82091 10.29682 170 ft 10 kts 159°
2026-04-28 18:43 44.82051 10.29749 170 ft 6 kts 110°
2026-04-28 18:43 44.82043 10.29758 170 ft 1 kts 197°
2026-04-28 18:43 44.82037 10.29761 170 ft 1 kts 154°
2026-04-28 18:44 44.82037 10.29762 170 ft 0 kts 142°